Вернуться в каталог

STARLINK-2714

АктивенСвязьVLEO
NORAD 48603·PAYLOAD·🇺🇸 United States

Запущен May 15, 2021 с Cape Canaveral Space Force Station

Loading…

Ближайшие Пролёты (ближайшие 24 часа)

TLE

СвежийSource: CelesTrak SupGP

Эпоха: Sep 15, 2026, 02:25 UTC

1 48603C 21041BC  26258.10118056  .00034328  00000+0  11036-2 0  2584
2 48603  53.1589 313.9918 0001155  83.1625  65.4895 15.31692437    14

Отслеживайте STARLINK-2714 в реальном времени с AllMySat

Download on the App Store